User: anonymous   Login
Location: Drayton Valley
(53.2170°N, 114.9830°W)
Time: 08:37:51
(UTC-06:00)
Language:

MOZ.5/SAFIR/RUBIN 5/SL-8 - Orbit

View from above orbital plane
View from above orbital plane
View from above satellite
View from above satellite

Ground track
Ground track

The orbit data is extracted from the following two-line orbital elements,

1 28898U 05043G   15241.09872223  .00000179  00000-0  46294-4 0  9999
2 28898 097.8520 051.8221 0021299 097.4605 262.9017 14.59953264523804
Epoch (UTC): 29 August 2015 02:22:09
Eccentricity: 0.0021299
inclination: 97.8520°
perigee height: 678 km
apogee height: 708 km
right ascension of ascending node: 51.8221°
argument of perigee: 97.4605°
revolutions per day: 14.59953264
mean anomaly at epoch: 262.9017°
orbit number at epoch: 52380

The dashed part of the orbit path shows where the satellite is in the earth's shadow,  

DLR